Location: Carrer del Canonge
(41.4901°N, 2.2931°E)
Time: 14:43:46
(UTC+00:00)

Cosmos 1025 Rocket - Pass Details

Date: 18 September 2020
Orbit: 595 x 617 km, 82.5° (Epoch: 28 October)

Event Time Altitude Azimuth Distance (km) Brightness Sun altitude
Rises 18:47:23 0° 3° (N) 2,885 6.6 -10.7°
Reaches altitude 10° 18:49:53 10° 16° (NNE) 1,979 5.6 -11.1°
Maximum altitude 18:53:37 27° 75° (ENE) 1,187 4.0 -11.8°
Enters shadow 18:56:08 17° 122° (ESE) 1,588 4.6 -12.3°
